| time (UTC) | temp C | wind direction | speed KPH | gust KPH | rain 1hr cm | rain 24hr cm | rain mn cm | humidity % | barometer mb |
| 20260507010007 | 12 | 287 | 1.6 | 6.4 | 0.15 | 0.71 | 0.71 | 95 | 1005.0 |
| 20260507004510 | 12 | 262 | 3.2 | 14.5 | 0.15 | 0.69 | 0.69 | 94 | 1004.9 |
| 20260507003007 | 13 | 281 | 8.0 | 16.1 | 0.13 | 0.64 | 0.64 | 93 | 1004.7 |
| 20260507001503 | 14 | 281 | 1.6 | 4.8 | 0.05 | 0.56 | 0.56 | 95 | 1004.3 |
| 20260507000003 | 14 | 272 | 1.6 | 4.8 | 0.05 | 0.56 | 0.56 | 95 | 1004.1 |
| 20260506234506 | 14 | 285 | 1.6 | 6.4 | 0.03 | 0.53 | 0.53 | 92 | 1004.2 |
| 20260506233002 | 15 | 221 | 3.2 | 11.3 | 0.00 | 0.51 | 0.51 | 91 | 1004.0 |
| 20260506231501 | 15 | 240 | 4.8 | 9.7 | 0.00 | 0.51 | 0.51 | 90 | 1004.0 |
| 20260506230100 | 15 | 233 | 4.8 | 11.3 | 0.00 | 0.51 | 0.51 | 90 | 1003.9 |
| 20260506224559 | 15 | 181 | 3.2 | 16.1 | 0.00 | 0.51 | 0.51 | 90 | 1003.9 |
| 20260506223058 | 15 | 226 | 6.4 | 16.1 | 0.00 | 0.51 | 0.51 | 90 | 1004.1 |
| 20260506221557 | 15 | 207 | 4.8 | 12.9 | 0.00 | 0.51 | 0.51 | 90 | 1004.1 |
| 20260506220107 | 15 | 224 | 6.4 | 16.1 | 0.00 | 0.51 | 0.51 | 90 | 1004.1 |
| 20260506214555 | 15 | 210 | 6.4 | 12.9 | 0.00 | 0.51 | 0.51 | 91 | 1004.2 |
| 20260506213100 | 15 | 144 | 4.8 | 22.5 | 0.00 | 0.51 | 0.51 | 91 | 1004.4 |
| 20260506211551 | 14 | 119 | 3.2 | 6.4 | 0.00 | 0.51 | 0.51 | 93 | 1004.5 |
| 20260506210100 | 14 | 99 | 3.2 | 9.7 | 0.03 | 0.51 | 0.51 | 95 | 1004.5 |
| 20260506204551 | 14 | 97 | 0.0 | 4.8 | 0.10 | 0.51 | 0.51 | 94 | 1004.6 |
| 20260506203135 | 15 | 103 | 0.0 | 1.6 | 0.18 | 0.51 | 0.51 | 94 | 1004.8 |
| 20260506201547 | 15 | 291 | 0.0 | 4.8 | 0.20 | 0.51 | 0.51 | 93 | 1005.1 |
| 20260506200048 | 15 | 250 | 0.0 | 4.8 | 0.20 | 0.48 | 0.48 | 92 | 1005.1 |
| 20260506194541 | 15 | 238 | 1.6 | 6.4 | 0.15 | 0.41 | 0.41 | 91 | 1005.3 |
| 20260506193039 | 15 | 255 | 1.6 | 8.0 | 0.08 | 0.33 | 0.33 | 90 | 1005.4 |
| 20260506191537 | 15 | 167 | 3.2 | 12.9 | 0.10 | 0.30 | 0.30 | 91 | 1005.7 |
| 20260506190045 | 15 | 143 | 1.6 | 11.3 | 0.10 | 0.28 | 0.28 | 91 | 1005.6 |
| 20260506184541 | 15 | 212 | 4.8 | 8.0 | 0.15 | 0.25 | 0.25 | 92 | 1005.9 |
| 20260506183034 | 15 | 160 | 1.6 | 4.8 | 0.18 | 0.25 | 0.25 | 93 | 1005.9 |
| 20260506181534 | 15 | 116 | 0.0 | 1.6 | 0.18 | 0.20 | 0.20 | 92 | 1006.2 |
| 20260506180033 | 15 | 231 | 0.0 | 1.6 | 0.18 | 0.18 | 0.18 | 92 | 1006.4 |
| 20260506174530 | 15 | 279 | 0.0 | 3.2 | 0.10 | 0.10 | 0.10 | 90 | 1006.5 |
| 20260506173037 | 16 | 192 | 0.0 | 4.8 | 0.08 | 0.08 | 0.08 | 87 | 1006.3 |
| 20260506171528 | 16 | 130 | 1.6 | 4.8 | 0.03 | 0.03 | 0.03 | 85 | 1006.2 |
| 20260506170027 | 16 | 236 | 0.0 | 1.6 | 0.00 | 0.00 | 0.00 | 83 | 1006.1 |
| 20260506164526 | 16 | 236 | 0.0 | 1.6 | 0.00 | 0.00 | 0.00 | 83 | 1006.4 |
| 20260506163040 | 16 | 236 | 0.0 | 1.6 | 0.00 | 0.00 | 0.00 | 83 | 1006.5 |
| 20260506161526 | 16 | 108 | 0.0 | 0.0 | 0.00 | 0.00 | 0.00 | 82 | 1006.7 |
| 20260506160023 | 16 | 108 | 0.0 | 1.6 | 0.00 | 0.00 | 0.00 | 82 | 1007.4 |
| 20260506154529 | 16 | 108 | 0.0 | 1.6 | 0.00 | 0.00 | 0.00 | 81 | 1007.8 |
| 20260506153017 | 16 | 113 | 0.0 | 1.6 | 0.00 | 0.00 | 0.00 | 82 | 1007.9 |
| 20260506151518 | 16 | 110 | 1.6 | 1.6 | 0.00 | 0.00 | 0.00 | 81 | 1008.0 |
| 20260506150016 | 16 | 178 | 0.0 | 1.6 | 0.00 | 0.00 | 0.00 | 80 | 1007.9 |
| 20260506144516 | 16 | 262 | 0.0 | 1.6 | 0.00 | 0.00 | 0.00 | 81 | 1008.0 |
| 20260506143015 | 16 | 263 | 0.0 | 1.6 | 0.00 | 0.00 | 0.00 | 81 | 1007.8 |
| 20260506141510 | 16 | 102 | 0.0 | 1.6 | 0.00 | 0.00 | 0.00 | 81 | 1007.8 |
| 20260506140017 | 15 | 102 | 0.0 | 3.2 | 0.00 | 0.00 | 0.00 | 81 | 1007.6 |
| 20260506134507 | 15 | 94 | 0.0 | 1.6 | 0.00 | 0.00 | 0.00 | 82 | 1007.8 |
| 20260506133007 | 15 | 94 | 0.0 | 1.6 | 0.00 | 0.00 | 0.00 | 82 | 1008.2 |
| 20260506131510 | 15 | 94 | 0.0 | 1.6 | 0.00 | 0.00 | 0.00 | 82 | 1008.1 |
| 20260506130007 | 15 | 120 | 0.0 | 1.6 | 0.00 | 0.00 | 0.00 | 82 | 1008.1 |
| 20260506124507 | 15 | 110 | 0.0 | 3.2 | 0.00 | 0.00 | 0.00 | 81 | 1008.1 |
| 20260506123008 | 15 | 121 | 0.0 | 1.6 | 0.00 | 0.00 | 0.00 | 81 | 1008.1 |
| 20260506121505 | 14 | 133 | 0.0 | 1.6 | 0.00 | 0.00 | 0.00 | 82 | 1008.3 |
| 20260506120104 | 13 | 133 | 0.0 | 1.6 | 0.00 | 0.00 | 0.00 | 86 | 1008.3 |
| 20260506114503 | 13 | 133 | 0.0 | 1.6 | 0.00 | 0.00 | 0.00 | 88 | 1008.1 |
| 20260506113003 | 12 | 98 | 0.0 | 0.0 | 0.00 | 0.00 | 0.00 | 90 | 1008.3 |
| 20260506111502 | 12 | 98 | 0.0 | 3.2 | 0.00 | 0.00 | 0.00 | 90 | 1008.3 |
| 20260506110002 | 12 | 94 | 0.0 | 3.2 | 0.00 | 0.00 | 0.00 | 90 | 1008.5 |
| 20260506104608 | 12 | 210 | 1.6 | 4.8 | 0.00 | 0.00 | 0.00 | 90 | 1009.0 |
| 20260506103105 | 12 | 153 | 0.0 | 3.2 | 0.00 | 0.00 | 0.00 | 90 | 1008.6 |
| 20260506101618 | 12 | 98 | 0.0 | 4.8 | 0.00 | 0.00 | 0.00 | 90 | 1008.4 |
| 20260506100055 | 12 | 107 | 0.0 | 1.6 | 0.00 | 0.00 | 0.00 | 91 | 1008.2 |
| 20260506094556 | 12 | 108 | 1.6 | 4.8 | 0.00 | 0.00 | 0.00 | 90 | 1008.0 |
| 20260506093051 | 12 | 122 | 0.0 | 1.6 | 0.00 | 0.00 | 0.00 | 88 | 1008.3 |
| 20260506091546 | 13 | 352 | 0.0 | 1.6 | 0.00 | 0.00 | 0.00 | 85 | 1008.1 |
| 20260506090056 | 13 | 331 | 0.0 | 1.6 | 0.00 | 0.00 | 0.00 | 83 | 1008.2 |
| 20260506084551 | 13 | 284 | 0.0 | 3.2 | 0.00 | 0.00 | 0.00 | 83 | 1008.3 |
| 20260506083040 | 15 | 264 | 1.6 | 8.0 | 0.00 | 0.00 | 0.00 | 79 | 1008.2 |
| 20260506081543 | 14 | 274 | 3.2 | 4.8 | 0.00 | 0.00 | 0.00 | 83 | 1008.2 |
| 20260506073038 | 14 | 105 | 0.0 | 1.6 | 0.00 | 0.00 | 0.00 | 84 | 1008.0 |
| 20260506071538 | 13 | 96 | 0.0 | 1.6 | 0.00 | 0.00 | 0.00 | 87 | 1007.9 |
| 20260506061535 | 15 | 267 | 0.0 | 1.6 | 0.00 | 0.00 | 0.00 | 84 | 1007.9 |
| 20260506044523 | 13 | 127 | 0.0 | 1.6 | 0.00 | 0.00 | 0.00 | 89 | 1007.8 |
| 20260506043022 | 13 | 194 | 0.0 | 1.6 | 0.00 | 0.00 | 0.00 | 89 | 1007.8 |
| 20260506041532 | 13 | 98 | 0.0 | 1.6 | 0.00 | 0.00 | 0.00 | 89 | 1007.8 |
| 20260506040016 | 13 | 330 | 0.0 | 3.2 | 0.00 | 0.00 | 0.00 | 89 | 1008.0 |
| 20260506034523 | 13 | 269 | 0.0 | 1.6 | 0.00 | 0.00 | 0.00 | 88 | 1007.8 |
| 20260506033017 | 13 | 278 | 0.0 | 1.6 | 0.00 | 0.00 | 0.00 | 88 | 1008.1 |
| 20260506031515 | 13 | 278 | 0.0 | 0.0 | 0.00 | 0.00 | 0.00 | 88 | 1007.8 |
| 20260506030016 | 14 | 129 | 0.0 | 1.6 | 0.00 | 0.00 | 0.00 | 87 | 1007.8 |
| 20260506024513 | 14 | 169 | 0.0 | 0.0 | 0.00 | 0.00 | 0.00 | 87 | 1007.9 |
| 20260506023013 | 15 | 143 | 0.0 | 1.6 | 0.00 | 0.00 | 0.00 | 85 | 1007.6 |
| 20260506021512 | 15 | 128 | 0.0 | 1.6 | 0.00 | 0.00 | 0.00 | 82 | 1007.6 |
| 20260506020012 | 16 | 128 | 0.0 | 1.6 | 0.00 | 0.00 | 0.00 | 79 | 1007.9 |
| 20260506014510 | 16 | 127 | 0.0 | 3.2 | 0.00 | 0.00 | 0.00 | 78 | 1007.9 |
| 20260506013016 | 17 | 217 | 0.0 | 1.6 | 0.00 | 0.00 | 0.00 | 76 | 1008.0 |
| 20260506011516 | 16 | 197 | 0.0 | 3.2 | 0.00 | 0.00 | 0.00 | 79 | 1007.9 |